Chesterfield, MO

11:59 PM CDT on September 24, 2016 (GMT -0500)
Spirit Of Saint Louis

Weather History for KSUS - February, 2014

Change the Weather History Date:

Friday, February 14, 2014

  Actual Average Record
Temperature  
Mean Temperature 26 °F -  
Max Temperature 34 °F 44 °F 69 °F (2006)
Min Temperature 17 °F 27 °F 12 °F (2007)
Degree Days  
Heating Degree Days 39    
Moisture  
Dew Point 22 °F    
Average Humidity 84    
Maximum Humidity 93    
Minimum Humidity 71    
Precipitation  
Precipitation 0.08 in - - ()
Sea Level Pressure  
Sea Level Pressure 29.83 in    
Wind  
Wind Speed 8 mph (NNW)    
Max Wind Speed 20 mph    
Max Gust Speed 24 mph    
Visibility 6 miles    
Events Rain , Snow    
Averages and records for this station are not official NWS values.
T = Trace of Precipitation, MM = Missing Value Source: NWS Daily Summary

Daily Weather History Graph

Daily Weather History Graph

Search for Another Location

Airport or City:

Trip Planner

Search our weather history database for the weather conditions in past years. The results will help you decide how hot, cold, wet, or windy it might be!

Date:

Astronomy

Feb. 14, 2014 Rise Set
Actual Time 6:54 AM CST 5:39 PM CST
Civil Twilight 6:27 AM CST 6:06 PM CST
Nautical Twilight 5:56 AM CST 6:37 PM CST
Astronomical Twilight 5:25 AM CST 7:08 PM CST
Moon 5:42 PM CST (2/14) 6:22 AM CST (2/14)
Length of Visible Light 11h 39m
Length of Day
10h 44m
Full, 100% of the Moon is Illuminated
Feb 14
Full
Feb 14
Full
Feb 22
Last Quarter
Mar 1
New
Mar 8
First Quarter

Hourly Weather History & Observations

Time (CST) Temp. Windchill Dew Point Humidity Pressure Visibility Wind Dir Wind Speed Gust Speed Precip Events Conditions
12:54 AM 32.0 °F 27.5 °F 27.0 °F 82% 29.78 in 10.0 mi West 4.6 mph - N/A   Clear
1:54 AM 28.9 °F - 26.1 °F 89% 29.76 in 9.0 mi Calm Calm - N/A   Clear
2:54 AM 27.0 °F 23.0 °F 24.1 °F 89% 29.75 in 7.0 mi WSW 3.5 mph - N/A   Clear
3:54 AM 27.0 °F - 25.0 °F 92% 29.75 in 8.0 mi Calm Calm - N/A   Mostly Cloudy
4:54 AM 28.9 °F - 27.0 °F 92% 29.75 in 7.0 mi Calm Calm - N/A   Mostly Cloudy
5:54 AM 30.9 °F 27.5 °F 28.0 °F 89% 29.77 in 7.0 mi North 3.5 mph - N/A   Overcast
6:54 AM 32.0 °F 26.4 °F 28.0 °F 85% 29.67 in 7.0 mi East 5.8 mph - N/A   Overcast
7:54 AM 34.0 °F 29.8 °F 28.9 °F 82% 29.67 in 7.0 mi SSE 4.6 mph - N/A   Overcast
8:34 AM 33.8 °F 25.8 °F 30.2 °F 87% 29.68 in 4.0 mi North 10.4 mph - 0.01 in Rain Light Rain
8:44 AM 32.0 °F 23.0 °F 28.4 °F 87% 29.65 in 2.5 mi East 11.5 mph - 0.03 in Rain Light Rain
8:54 AM 32.0 °F 24.8 °F 28.9 °F 88% 29.65 in 2.0 mi East 8.1 mph - 0.05 in Rain Light Rain
9:35 AM 30.2 °F 21.3 °F 28.4 °F 93% 29.67 in 2.0 mi NNE 10.4 mph - 0.03 in Rain Light Freezing Rain
9:46 AM 30.2 °F 19.3 °F 26.6 °F 86% 29.67 in 2.0 mi NE 15.0 mph - 0.03 in Snow Light Snow
9:54 AM 28.9 °F 16.1 °F 26.1 °F 89% 29.68 in 3.0 mi ENE 19.6 mph 23.0 mph 0.03 in Snow Light Snow
10:09 AM 28.4 °F 19.7 °F 26.6 °F 93% 29.68 in 6.0 mi North 9.2 mph - 0.00 in   Overcast
10:54 AM 26.1 °F 17.6 °F 23.0 °F 88% 29.72 in 9.0 mi NE 8.1 mph - 0.00 in   Overcast
11:54 AM 26.1 °F 18.4 °F 21.9 °F 84% 29.75 in 8.0 mi North 6.9 mph - N/A   Overcast
12:54 PM 25.0 °F 13.1 °F 21.0 °F 85% 29.79 in 6.0 mi NNW 13.8 mph - N/A   Overcast
1:31 PM 23.0 °F 10.6 °F 21.2 °F 93% 29.78 in 2.0 mi NNW 13.8 mph 20.7 mph N/A   Overcast
1:39 PM 23.0 °F 11.1 °F 19.4 °F 86% 29.79 in 2.0 mi NNW 12.7 mph 20.7 mph 0.00 in Rain Light Freezing Rain
1:54 PM 23.0 °F 11.1 °F 21.0 °F 92% 29.83 in 2.0 mi NNW 12.7 mph - 0.00 in Rain Light Freezing Rain
2:54 PM 24.1 °F 11.5 °F 19.9 °F 84% 29.86 in 3.0 mi NNW 15.0 mph 24.2 mph 0.00 in Rain Light Freezing Rain
3:10 PM 24.8 °F 12.4 °F 21.2 °F 86% 29.84 in 4.0 mi NNW 15.0 mph 20.7 mph 0.00 in   Overcast
3:54 PM 24.1 °F 12.5 °F 19.0 °F 81% 29.90 in 5.0 mi NNW 12.7 mph 21.9 mph 0.00 in Snow Light Snow
4:34 PM 24.8 °F 13.4 °F 19.4 °F 80% 29.89 in 3.0 mi WNW 12.7 mph - 0.00 in Snow Light Snow
4:54 PM 24.1 °F 12.5 °F 19.0 °F 81% 29.94 in 4.0 mi WNW 12.7 mph - 0.00 in   Overcast
5:54 PM 23.0 °F 10.1 °F 18.0 °F 81% 29.98 in 10.0 mi WNW 15.0 mph 21.9 mph N/A   Overcast
6:37 PM 21.2 °F 8.3 °F 15.8 °F 80% 29.98 in 10.0 mi NW 13.8 mph - N/A   Scattered Clouds
6:54 PM 21.9 °F 11.0 °F 15.1 °F 75% 30.03 in 10.0 mi WNW 10.4 mph - N/A   Clear
7:54 PM 21.0 °F 11.4 °F 15.1 °F 78% 30.05 in 10.0 mi WNW 8.1 mph - N/A   Clear
8:54 PM 21.0 °F 11.4 °F 12.9 °F 71% 30.07 in 10.0 mi WNW 8.1 mph - N/A   Clear
9:54 PM 19.9 °F 8.6 °F 12.0 °F 71% 30.09 in 10.0 mi NW 10.4 mph - N/A   Clear
10:54 PM 18.0 °F 6.9 °F 10.9 °F 74% 30.12 in 10.0 mi WNW 9.2 mph - N/A   Clear
11:54 PM 17.1 °F 5.0 °F 9.0 °F 71% 30.14 in 10.0 mi NW 10.4 mph - N/A   Clear